{"data":{"norad_id":63497,"intl_designator":"2025-071E","name":"STARLINK-33815","alt_names":[],"object_type":"PAYLOAD","status":"ACTIVE","operator":null,"country":"US","launch_date":"2025-04-07","launch_site_code":"AFWTR","launch_vehicle":null,"mission":null,"orbit_class":"UNKNOWN","rcs_meters":null,"size_class":null,"mass_kg":null,"dimensions":null,"purposes":["comms"],"wikipedia_slug":null,"has_3d_model":false,"image_url":null,"decayed_at":null,"tle_current":{"epoch":"2026-05-25T03:29:31.528320Z","epoch_age_seconds":59174,"freshness":"FRESH","line1":"1 63497U 25071E   26145.14550380  .00015516  00000+0  51066-3 0  9996","line2":"2 63497  53.1587 144.9391 0001022  47.8418 312.2670 15.31702764 64476","mean_motion":15.31702764,"eccentricity":0.0001022,"inclination_deg":53.1587,"raan_deg":144.9391,"arg_perigee_deg":47.8418,"mean_anomaly_deg":312.267,"bstar":0.00051066,"rev_number":6447,"period_min":94.013018311691,"perigee_km":470.03180151101,"apogee_km":471.43171028472,"semimajor_km":6848.8687558979,"source":"CELESTRAK","updated_at":"2026-05-25T13:38:20.012343Z"}}}